This is the latest recevied weather packets stored in our database for station/object KC3WWU. If no packets are shown the sender has not sent any weather packets the latest 10 day(s).
| Time | Temp. | Humidity | Pressure | Rain* | Wind** | Luminosity | Snow |
|---|---|---|---|---|---|---|---|
| 1778167508 | 11.67° C | 53% | 1009.9 hPa | 0 mm | - | 674 W/m² | - |
| 1778167205 | 12.22° C | 53% | 1009.8 hPa | 0 mm | - | 720 W/m² | - |
| 1778166901 | 11.67° C | 55% | 1009.7 hPa | 0 mm | - | 695 W/m² | - |
| 1778166598 | 11.67° C | 55% | 1009.9 hPa | 0 mm | - | 636 W/m² | - |
| 1778166295 | 11.67° C | 52% | 1009.8 hPa | 0 mm | - | 616 W/m² | - |
| 1778165992 | 11.11° C | 55% | 1009.9 hPa | 0 mm | - | 609 W/m² | - |
| 1778165687 | 11.11° C | 52% | 1010.2 hPa | 0 mm | - | 363 W/m² | - |
| 1778165385 | 11.11° C | 55% | 1010.2 hPa | 0 mm | - | 584 W/m² | - |
| 1778165081 | 11.67° C | 55% | 1009.9 hPa | 0 mm | - | 564 W/m² | - |
| 1778164778 | 10.56° C | 51% | 1010 hPa | 0 mm | - | 559 W/m² | - |
| 1778164476 | 10.56° C | 52% | 1010.2 hPa | 0 mm | - | 541 W/m² | - |
| 1778164172 | 10.56° C | 55% | 1010.4 hPa | 0 mm | - | 531 W/m² | - |
| 1778163868 | 10.56° C | 57% | 1010.4 hPa | 0 mm | - | 513 W/m² | - |
| 1778163565 | 10.56° C | 59% | 1010.5 hPa | 0 mm | - | 500 W/m² | - |
| 1778163261 | 10° C | 61% | 1010.4 hPa | 0 mm | - | 487 W/m² | - |
| 1778162958 | 10.56° C | 62% | 1010.6 hPa | 0 mm | - | 479 W/m² | - |
| 1778162655 | 10° C | 60% | 1010.6 hPa | 0 mm | - | 458 W/m² | - |
| 1778162353 | 10° C | 61% | 1010.4 hPa | 0 mm | - | 445 W/m² | - |
| 1778162049 | 10° C | 61% | 1010.8 hPa | 0 mm | - | 394 W/m² | - |
| 1778161747 | 9.44° C | 64% | 1010.9 hPa | 0 mm | - | 418 W/m² | - |
| 1778161442 | 9.44° C | 65% | 1010.5 hPa | 0 mm | - | 409 W/m² | - |
| 1778161139 | 9.44° C | 64% | 1010.9 hPa | 0 mm | - | 393 W/m² | - |
| 1778160834 | 8.89° C | 66% | 1010.7 hPa | 0 mm | - | 379 W/m² | - |
| 1778160534 | 8.89° C | 63% | 1010.7 hPa | 0 mm | - | 366 W/m² | - |
| 1778160229 | 8.89° C | 62% | 1010.6 hPa | 0 mm | - | 352 W/m² | - |
* Rain latest hour (hover to see other rain measurements)
** Current wind speed in m/s (hover to see current wind gust speed)